Location: �terpigny
(49.8910°N, 2.9249°E)
Time: 16:54:23
(UTC+00:00)

NOSS 3-2 (A) - Pass Details

Date: 24 October 2021
Orbit: 771 x 1437 km, 63.4° (Epoch: 21 November)

Event Time Altitude Azimuth Distance (km) Brightness Sun altitude
Rises 19:54:43 0° 315° (NW) 3,834 7.5 -31.7°
Reaches altitude 10° 19:57:16 10° 319° (NW) 2,969 6.7 -32.1°
Enters shadow 20:03:52 59° 22° (NNE) 1,399 4.1 -33.1°
